FENGYUN 1C DEB, 31218

Orbit data source: Space-Track

FENGYUN 1C DEB, 31218 is space debris in SSO originally from a launch on Mon, 10 May 1999 UTC launched from the Taiyaun Space Center, China (TSC). Fengyun 1C debris stems from the Chinese weather satellite Fengyun-1C, which was intentionally destroyed by a Chinese anti-satellite missile in 2007. This event dramatically increased the amount of space debris, with thousands of trackable fragments posing hazards to satellites and human spaceflight. The Fengyun 1C debris cloud has become a focal point in discussions about space sustainability and the need for international regulations to prevent the creation of new debris.

Loading next visibility...
Identifier
31218, 1999-025BKY
Orbit
SSO
Country
Flag of CNCN / PRC
Related business
Manufacturer
Unknown
Mission
Spacecraft
Bus & Motor
Unknown
Mass
Unknown
Launch date (UTC)
1999-05-10 (27 years ago)
Launch vehicle
Unknown
Launch site
Taiyaun Space Center, China (TSC)
Object type
Payload
Rocket body
Debris
Shape & HBR
Unknown shape, 0.1 m
Radar Cross Section
Small (<0.1 m²)

Expand to show TLE details & history
Last TLE update: 1 day ago

TLE from 1 day ago
0 FENGYUN 1C DEB
1 31218U 99025BKY 26037.26666536  .00048701  00000-0  68757-2 0  9993
2 31218  98.8368 157.4578 0015436 226.9774 133.0141 14.76885411979016
Epoch: 2026-02-06T06:23Z
TLE epoch observation values (Epoch: 2026-02-06T06:23:59.887Z)
Latitude
0.00001°
Longitude
-74.94873°
Altitude
649.56 km
Speed
7.529 km/s
True Right ascension
10h 29m 49s
True Declination
0° 00' 00"
Sunlit
Object was in full shadow at epoch
Visualization orbit readout
Latitude
Unknown
Longitude
Unknown
Altitude
Unknown
Speed
Unknown
Apparent Right ascension
Unknown
Apparent Declination
Unknown
Sunlit
N/A
Visualization observer readout
Local Sidereal Time
13:13:06
Azimuth
Unknown
Elevation
Unknown
Doppler factor
Unknown
Orbital elements
Apogee altitude
647.089 km
Perigee altitude
625.435 km
Semi-major axis
7,014.399 km
Eccentricity
0.00154
Inclination
98.8368°
RAAN
157.4578°
Arg. of periapsis
226.9774°
True anomaly
133.14326°
Mean anomaly
133.0141°
Eccentric anomaly
133.0787°
Mean motion
3.69452 °/min
Orbital period
97.44 mins
BSTAR
0.0068757
Loading maneuver chart data...
Computing Atmospheric mass density...

Documentation

Showing up to 5 results
|